DW5499 Weather Reports


Display with metric or nautical units.
time (UTC)temp
F
wind
direction
speed
MPH
gust
MPH
rain 1hr
in
rain 24hr
in
rain mn
in
humidity
%
barometer
mb
20230201113043 13 151 0.0 2.0 0.00 0.00 0.00 75 1031.3
20230201111550 13 121 1.0 4.0 0.00 0.00 0.00 74 1031.2
20230201110043 13 160 0.0 3.0 0.00 0.00 0.00 74 1031.2
20230201104546 13 182 1.0 4.0 0.00 0.00 0.00 74 1031.4
20230201103051 14 148 0.0 7.0 0.00 0.00 0.00 74 1031.2
20230201101550 14 144 0.0 3.0 0.00 0.00 0.00 74 1031.4
20230201100039 13 192 2.0 3.0 0.00 0.00 0.00 74 1031.4
20230201094537 13 174 2.0 4.0 0.00 0.00 0.00 73 1031.3
20230201093036 14 125 1.0 3.0 0.00 0.00 0.00 72 1031.0
20230201091534 14 135 1.0 4.0 0.00 0.00 0.00 71 1030.9
20230201090040 15 147 0.0 2.0 0.00 0.00 0.00 71 1030.8
20230201084542 14 183 1.0 3.0 0.00 0.00 0.00 71 1031.0
20230201083027 15 197 2.0 4.0 0.00 0.00 0.00 70 1031.0
20230201081526 15 151 0.0 2.0 0.00 0.00 0.00 70 1031.1
20230201080034 15 119 0.0 2.0 0.00 0.00 0.00 70 1031.3
20230201074522 15 138 0.0 3.0 0.00 0.00 0.00 69 1031.4
20230201073019 16 143 0.0 3.0 0.00 0.00 0.00 68 1031.5
20230201071519 16 172 0.0 1.0 0.00 0.00 0.00 68 1031.5
20230201070028 16 171 0.0 3.0 0.00 0.00 0.00 68 1031.6
20230201064517 16 171 0.0 2.0 0.00 0.00 0.00 66 1031.6
20230201063032 16 209 0.0 2.0 0.00 0.00 0.00 66 1031.7
20230201061514 17 201 0.0 4.0 0.00 0.00 0.00 65 1031.8
20230201060012 17 175 1.0 4.0 0.00 0.00 0.00 67 1031.6
20230201054507 17 168 0.0 2.0 0.00 0.00 0.00 66 1031.7
20230201053002 17 214 1.0 3.0 0.00 0.00 0.00 65 1031.6
20230201051614 17 178 0.0 2.0 0.00 0.00 0.00 66 1031.5
20230201050054 17 178 1.0 3.0 0.00 0.00 0.00 66 1031.7
20230201044552 17 222 0.0 0.0 0.00 0.00 0.00 66 1031.7
20230201043045 17 222 0.0 0.0 0.00 0.00 0.00 65 1031.8
20230201041549 17 224 0.0 1.0 0.00 0.00 0.00 64 1031.7
20230201040037 17 224 0.0 0.0 0.00 0.00 0.00 63 1031.5
20230201034532 18 224 0.0 2.0 0.00 0.00 0.00 62 1031.5
20230201033029 18 223 0.0 3.0 0.00 0.00 0.00 60 1031.5
20230201031524 19 213 0.0 2.0 0.00 0.00 0.00 60 1031.4
20230201030020 19 199 0.0 3.0 0.00 0.00 0.00 60 1031.5
20230201024515 19 213 1.0 3.0 0.00 0.00 0.00 59 1031.7
20230201023009 19 189 0.0 4.0 0.00 0.00 0.00 58 1031.5
20230201021505 19 220 0.0 2.0 0.00 0.00 0.00 57 1031.6
20230201020002 20 220 1.0 2.0 0.00 0.00 0.00 55 1031.6
20230201014605 21 216 1.0 2.0 0.00 0.00 0.00 53 1031.4
20230201013053 21 207 0.0 3.0 0.00 0.00 0.00 52 1031.5
20230201011547 22 221 0.0 3.0 0.00 0.00 0.00 51 1031.6
20230201010045 22 208 1.0 4.0 0.00 0.00 0.00 50 1031.6
20230201004539 23 219 2.0 5.0 0.00 0.00 0.00 49 1031.7
20230201003037 23 213 2.0 5.0 0.00 0.00 0.00 48 1031.5
20230201001530 23 222 2.0 4.0 0.00 0.00 0.00 47 1031.6
20230201000026 24 212 3.0 5.0 0.00 0.00 0.00 46 1031.5
20230131234524 24 233 3.0 5.0 0.00 0.00 0.00 46 1031.4
20230131233017 24 261 3.0 6.0 0.00 0.00 0.00 45 1031.6
20230131231515 25 214 3.0 7.0 0.00 0.00 0.00 45 1031.7
20230131230016 25 214 2.0 7.0 0.00 0.00 0.00 44 1031.5
20230131224504 25 248 4.0 8.0 0.00 0.00 0.00 43 1031.7
20230131223104 25 305 3.0 8.0 0.00 0.00 0.00 43 1031.8
20230131221558 25 217 2.0 8.0 0.00 0.00 0.00 44 1031.8
20230131220053 25 241 3.0 7.0 0.00 0.00 0.00 44 1031.8
20230131214547 25 189 4.0 8.0 0.00 0.00 0.00 44 1031.8
20230131213043 24 320 3.0 10.0 0.00 0.00 0.00 45 1031.9
20230131211543 24 249 1.0 9.0 0.00 0.00 0.00 45 1031.7
20230131210034 24 211 2.0 8.0 0.00 0.00 0.00 45 1031.6
20230131204601 24 197 4.0 11.0 0.00 0.00 0.00 45 1031.7
20230131203034 24 299 5.0 11.0 0.00 0.00 0.00 45 1031.8
20230131201521 23 247 5.0 12.0 0.00 0.00 0.00 46 1032.0
20230131200018 23 289 2.0 7.0 0.00 0.00 0.00 47 1032.0
20230131194514 22 179 2.0 9.0 0.00 0.00 0.00 48 1032.2
20230131193018 22 305 5.0 9.0 0.00 0.00 0.00 48 1032.1
20230131191510 21 235 4.0 9.0 0.00 0.00 0.00 47 1032.4
20230131190058 22 173 1.0 5.0 0.00 0.00 0.00 49 1032.5
20230131184554 20 120 2.0 7.0 0.00 0.00 0.00 49 1032.8
20230131183049 19 317 1.0 6.0 0.00 0.00 0.00 51 1033.3
20230131181545 19 6 1.0 6.0 0.00 0.00 0.00 52 1033.6
20230131180042 19 133 1.0 8.0 0.00 0.00 0.00 52 1033.9
20230131174536 18 223 2.0 8.0 0.00 0.00 0.00 52 1034.3
20230131173035 18 263 4.0 8.0 0.00 0.00 0.00 52 1034.8
20230131171527 17 45 2.0 4.0 0.00 0.00 0.00 55 1035.2
20230131170023 17 290 2.0 5.0 0.00 0.00 0.00 56 1035.4
20230131164519 16 264 1.0 7.0 0.00 0.00 0.00 56 1035.7
20230131163015 16 170 1.0 6.0 0.00 0.00 0.00 58 1035.8
20230131161511 15 116 2.0 5.0 0.00 0.00 0.00 61 1036.1
20230131160006 14 122 3.0 9.0 0.00 0.00 0.00 61 1036.3
20230131154501 14 152 2.0 5.0 0.00 0.00 0.00 64 1036.0
20230131153057 13 95 1.0 4.0 0.00 0.00 0.00 65 1035.6
20230131151622 12 153 0.0 3.0 0.00 0.00 0.00 68 1035.9
20230131150049 12 55 1.0 3.0 0.00 0.00 0.00 71 1036.0
20230131144547 11 85 1.0 3.0 0.00 0.00 0.00 73 1036.1
20230131143040 10 222 0.0 2.0 0.00 0.00 0.00 75 1036.2
20230131141535 9 222 0.0 2.0 0.00 0.00 0.00 75 1036.0
20230131140031 8 215 0.0 3.0 0.00 0.00 0.00 75 1035.9
20230131134528 7 236 0.0 1.0 0.00 0.00 0.00 75 1035.7
20230131133028 7 235 0.0 2.0 0.00 0.00 0.00 75 1035.6
20230131131521 7 251 1.0 3.0 0.00 0.00 0.00 74 1035.6
20230131130016 7 251 1.0 4.0 0.00 0.00 0.00 74 1035.4
20230131124513 7 250 3.0 4.0 0.00 0.00 0.00 73 1035.3
20230131123005 8 279 1.0 2.0 0.00 0.00 0.00 71 1035.0
20230131121600 9 345 0.0 3.0 0.00 0.00 0.00 70 1035.1
20230131120058 9 354 1.0 3.0 0.00 0.00 0.00 70 1034.7
20230131114552 9 1 2.0 4.0 0.00 0.00 0.00 69 1035.1